| time (UTC) | temp F | wind direction | speed MPH | gust MPH | rain 1hr in | rain 24hr in | rain mn in | humidity % | barometer mb |
| 20260505022122 | 61 | 56 | 0.0 | 2.0 | 0.00 | 0.00 | 0.00 | 50 | 1008.7 |
| 20260505021122 | 61 | 209 | 1.0 | 2.0 | 0.00 | 0.00 | 0.00 | 50 | 1008.9 |
| 20260505020122 | 61 | 311 | 1.0 | 3.0 | 0.00 | 0.00 | 0.00 | 49 | 1009.0 |
| 20260505015121 | 61 | 53 | 1.0 | 2.0 | 0.00 | 0.00 | 0.00 | 50 | 1009.0 |
| 20260505014122 | 62 | 154 | 0.0 | 2.0 | 0.00 | 0.00 | 0.00 | 49 | 1008.9 |
| 20260505013122 | 62 | 138 | 1.0 | 2.0 | 0.00 | 0.00 | 0.00 | 47 | 1008.7 |
| 20260505012122 | 62 | 49 | 0.0 | 2.0 | 0.00 | 0.00 | 0.00 | 48 | 1008.7 |
| 20260505011122 | 62 | 15 | 0.0 | 2.0 | 0.00 | 0.00 | 0.00 | 48 | 1008.7 |
| 20260505010122 | 61 | 336 | 1.0 | 2.0 | 0.00 | 0.00 | 0.00 | 50 | 1008.6 |
| 20260505005122 | 62 | 227 | 0.0 | 1.0 | 0.00 | 0.00 | 0.00 | 49 | 1008.4 |
| 20260505004122 | 63 | 135 | 0.0 | 1.0 | 0.00 | 0.00 | 0.00 | 47 | 1008.4 |
| 20260505003122 | 64 | 132 | 0.0 | 2.0 | 0.00 | 0.00 | 0.00 | 45 | 1008.4 |
| 20260505002120 | 65 | 89 | 0.0 | 2.0 | 0.00 | 0.00 | 0.00 | 42 | 1008.3 |
| 20260505001121 | 67 | 251 | 0.0 | 2.0 | 0.00 | 0.00 | 0.00 | 41 | 1008.2 |
| 20260505000120 | 67 | 241 | 2.0 | 5.0 | 0.00 | 0.00 | 0.00 | 38 | 1008.1 |
| 20260504235120 | 68 | 260 | 1.0 | 5.0 | 0.00 | 0.00 | 0.00 | 38 | 1008.2 |
| 20260504234142 | 68 | 252 | 1.0 | 3.0 | 0.00 | 0.00 | 0.00 | 38 | 1008.1 |
| 20260504233142 | 69 | 258 | 2.0 | 4.0 | 0.00 | 0.00 | 0.00 | 37 | 1008.0 |
| 20260504232121 | 69 | 266 | 2.0 | 6.0 | 0.00 | 0.00 | 0.00 | 36 | 1008.0 |
| 20260504231120 | 70 | 236 | 3.0 | 7.0 | 0.00 | 0.00 | 0.00 | 36 | 1008.1 |
| 20260504230121 | 70 | 256 | 3.0 | 7.0 | 0.00 | 0.00 | 0.00 | 36 | 1008.1 |
| 20260504225121 | 70 | 238 | 2.0 | 4.0 | 0.00 | 0.00 | 0.00 | 36 | 1008.1 |
| 20260504224121 | 70 | 216 | 4.0 | 11.0 | 0.00 | 0.00 | 0.00 | 35 | 1008.0 |
| 20260504223121 | 71 | 257 | 3.0 | 6.0 | 0.00 | 0.00 | 0.00 | 34 | 1008.1 |
| 20260504222121 | 71 | 257 | 2.0 | 8.0 | 0.00 | 0.00 | 0.00 | 34 | 1008.2 |
| 20260504221121 | 71 | 265 | 5.0 | 11.0 | 0.00 | 0.00 | 0.00 | 34 | 1008.1 |
| 20260504220142 | 71 | 210 | 4.0 | 10.0 | 0.00 | 0.00 | 0.00 | 34 | 1008.1 |
| 20260504215121 | 71 | 260 | 3.0 | 6.0 | 0.00 | 0.00 | 0.00 | 33 | 1008.2 |
| 20260504214120 | 71 | 205 | 3.0 | 8.0 | 0.00 | 0.00 | 0.00 | 34 | 1008.2 |
| 20260504213142 | 71 | 232 | 4.0 | 8.0 | 0.00 | 0.00 | 0.00 | 34 | 1008.2 |
| 20260504212121 | 72 | 265 | 3.0 | 6.0 | 0.00 | 0.00 | 0.00 | 34 | 1008.3 |
| 20260504211121 | 71 | 248 | 3.0 | 6.0 | 0.00 | 0.00 | 0.00 | 34 | 1008.2 |
| 20260504210121 | 71 | 210 | 4.0 | 8.0 | 0.00 | 0.00 | 0.00 | 33 | 1008.3 |
| 20260504205121 | 71 | 229 | 5.0 | 14.0 | 0.00 | 0.00 | 0.00 | 34 | 1008.3 |
| 20260504204121 | 72 | 265 | 4.0 | 8.0 | 0.00 | 0.00 | 0.00 | 34 | 1008.2 |
| 20260504203121 | 71 | 206 | 4.0 | 11.0 | 0.00 | 0.00 | 0.00 | 34 | 1008.1 |
| 20260504202121 | 71 | 226 | 4.0 | 7.0 | 0.00 | 0.00 | 0.00 | 35 | 1008.4 |
| 20260504201121 | 70 | 215 | 6.0 | 12.0 | 0.00 | 0.00 | 0.00 | 35 | 1008.4 |
| 20260504200121 | 71 | 225 | 3.0 | 11.0 | 0.00 | 0.00 | 0.00 | 38 | 1008.7 |
| 20260504195121 | 71 | 219 | 6.0 | 13.0 | 0.00 | 0.00 | 0.00 | 35 | 1008.7 |
| 20260504194121 | 71 | 237 | 4.0 | 7.0 | 0.00 | 0.00 | 0.00 | 34 | 1008.8 |
| 20260504193142 | 71 | 244 | 3.0 | 9.0 | 0.00 | 0.00 | 0.00 | 35 | 1008.9 |
| 20260504192121 | 71 | 201 | 5.0 | 13.0 | 0.00 | 0.00 | 0.00 | 36 | 1009.1 |
| 20260504191142 | 71 | 262 | 5.0 | 11.0 | 0.00 | 0.00 | 0.00 | 34 | 1009.4 |
| 20260504190121 | 70 | 207 | 3.0 | 5.0 | 0.00 | 0.00 | 0.00 | 35 | 1009.2 |
| 20260504185142 | 71 | 187 | 4.0 | 10.0 | 0.00 | 0.00 | 0.00 | 35 | 1009.4 |
| 20260504184121 | 71 | 251 | 5.0 | 10.0 | 0.00 | 0.00 | 0.00 | 34 | 1009.3 |
| 20260504183142 | 71 | 247 | 4.0 | 11.0 | 0.00 | 0.00 | 0.00 | 36 | 1009.5 |
| 20260504182121 | 70 | 236 | 5.0 | 11.0 | 0.00 | 0.00 | 0.00 | 34 | 1009.6 |
| 20260504181121 | 69 | 201 | 5.0 | 10.0 | 0.00 | 0.00 | 0.00 | 35 | 1009.9 |
| 20260504180121 | 69 | 220 | 5.0 | 12.0 | 0.00 | 0.00 | 0.00 | 34 | 1010.1 |
| 20260504175121 | 69 | 247 | 5.0 | 12.0 | 0.00 | 0.00 | 0.00 | 34 | 1010.2 |
| 20260504174121 | 69 | 232 | 4.0 | 14.0 | 0.00 | 0.00 | 0.00 | 35 | 1010.3 |
| 20260504173121 | 68 | 187 | 5.0 | 10.0 | 0.00 | 0.00 | 0.00 | 35 | 1010.4 |
| 20260504172121 | 69 | 231 | 4.0 | 10.0 | 0.00 | 0.00 | 0.00 | 35 | 1010.5 |
| 20260504171121 | 68 | 260 | 6.0 | 10.0 | 0.00 | 0.00 | 0.00 | 34 | 1010.9 |
| 20260504170121 | 69 | 252 | 3.0 | 7.0 | 0.00 | 0.00 | 0.00 | 36 | 1010.9 |
| 20260504160121 | 67 | 229 | 5.0 | 13.0 | 0.00 | 0.00 | 0.00 | 35 | 1011.5 |
| 20260504151121 | 65 | 277 | 4.0 | 9.0 | 0.00 | 0.00 | 0.00 | 37 | 1012.0 |
| 20260504150121 | 65 | 262 | 5.0 | 10.0 | 0.00 | 0.00 | 0.00 | 36 | 1012.0 |
| 20260504141121 | 62 | 251 | 3.0 | 7.0 | 0.00 | 0.00 | 0.00 | 46 | 1012.1 |
| 20260504140142 | 61 | 260 | 5.0 | 9.0 | 0.00 | 0.00 | 0.00 | 47 | 1012.1 |
| 20260504130121 | 57 | 198 | 3.0 | 8.0 | 0.00 | 0.00 | 0.00 | 58 | 1012.6 |
| 20260504120121 | 54 | 62 | 1.0 | 2.0 | 0.00 | 0.00 | 0.00 | 58 | 1012.8 |
| 20260504110143 | 46 | 144 | 2.0 | 3.0 | 0.00 | 0.00 | 0.00 | 62 | 1013.0 |
| 20260504100143 | 40 | 332 | 2.0 | 4.0 | 0.00 | 0.00 | 0.00 | 69 | 1013.3 |
| 20260504090122 | 42 | 138 | 0.0 | 1.0 | 0.00 | 0.00 | 0.00 | 67 | 1013.2 |
| 20260504081120 | 43 | 201 | 0.0 | 1.0 | 0.00 | 0.00 | 0.00 | 64 | 1013.1 |
| 20260504080142 | 43 | 308 | 0.0 | 1.0 | 0.00 | 0.00 | 0.00 | 64 | 1013.1 |
| 20260504070121 | 43 | 109 | 0.0 | 1.0 | 0.00 | 0.00 | 0.00 | 65 | 1013.1 |
| 20260504060142 | 43 | 190 | 0.0 | 1.0 | 0.00 | 0.00 | 0.00 | 65 | 1013.2 |
| 20260504050121 | 45 | 159 | 0.0 | 0.0 | 0.00 | 0.00 | 0.00 | 62 | 1013.3 |
| 20260504045121 | 45 | 101 | 0.0 | 0.0 | 0.00 | 0.00 | 0.00 | 62 | 1013.2 |
| 20260504044142 | 45 | 141 | 0.0 | 2.0 | 0.00 | 0.00 | 0.00 | 63 | 1013.2 |
| 20260504043121 | 45 | 140 | 0.0 | 1.0 | 0.00 | 0.00 | 0.00 | 62 | 1013.1 |
| 20260504042121 | 45 | 314 | 0.0 | 0.0 | 0.00 | 0.00 | 0.00 | 61 | 1013.1 |
| 20260504041121 | 46 | 304 | 0.0 | 2.0 | 0.00 | 0.00 | 0.00 | 61 | 1012.9 |
| 20260504040121 | 46 | 172 | 0.0 | 0.0 | 0.00 | 0.00 | 0.00 | 61 | 1012.8 |
| 20260504035121 | 46 | 156 | 0.0 | 0.0 | 0.00 | 0.00 | 0.00 | 60 | 1012.9 |
| 20260504034121 | 46 | 241 | 0.0 | 1.0 | 0.00 | 0.00 | 0.00 | 59 | 1012.7 |
| 20260504033121 | 47 | 326 | 0.0 | 1.0 | 0.00 | 0.00 | 0.00 | 58 | 1012.9 |
| 20260504032121 | 47 | 61 | 0.0 | 1.0 | 0.00 | 0.00 | 0.00 | 57 | 1012.8 |
| 20260504031121 | 47 | 128 | 0.0 | 0.0 | 0.00 | 0.00 | 0.00 | 55 | 1012.6 |
| 20260504030121 | 48 | 123 | 0.0 | 0.0 | 0.00 | 0.00 | 0.00 | 54 | 1012.6 |
| 20260504025121 | 48 | 152 | 0.0 | 1.0 | 0.00 | 0.00 | 0.00 | 53 | 1012.5 |
| 20260504024121 | 48 | 153 | 0.0 | 2.0 | 0.00 | 0.00 | 0.00 | 51 | 1012.5 |
| 20260504023121 | 49 | 28 | 0.0 | 1.0 | 0.00 | 0.00 | 0.00 | 50 | 1012.6 |